Zurück zum Katalog

DELTA 1 DEB

AktivSSO
NORAD 21542·DEBRIS·🇺🇸 United States

Gestartet Jun 12, 1975 von Vandenberg Space Force Base

Loading…

Nächste Überflüge (nächste 24 Stunden)

TLE

AktuellSource: Space-Track

Epoche: Sep 14, 2026, 04:03 UTC

1 21542U 75052GW  26257.16888389  .00000126  00000-0  32000-3 0  9993
2 21542 100.2657 139.4465 0049100 165.0470 348.9930 13.38583071724970

Verfolge DELTA 1 DEB in Echtzeit mit AllMySat

Download on the App Store